星链-5546 (STARLINK-5546 )

导读

STARLINK-5546是美国太空探索技术公司SpaceX星链星座的成员,于2023年2月17日发射升空。星链计划最终将在近地轨道部署超4万颗卫星,旨在为全球提供高速低时延卫星互联网服务,同时具备潜在军事应用价值。该卫星运行在近地轨道,属于星链组网的一部分,助力星座实现全球网络覆盖,目前已在轨道稳定运行超三年,参与提供全球卫星宽带接入服务。

基本信息
目录编号:
55632
目录名称:
STARLINK-5546
国际标识:
2023-021E
轨道中心:
EARTH
卫星名称:
星链-5546
卫星全名:
星链-5546 (STARLINK-5546 )
卫星状态:
在轨 (已飞行1296 天)
发射日期:
2023-02-17 UTC
国别 :
美国 (US)
星等 :
--
轨道信息
数据来源 国际轨道数据 AOE轨道数据
星历时间 2026-09-04T09:02:32+0800
23小时前
查看轨道信息
2026-09-03T22:00:00+0800
1天前
查看轨道信息
半长轴 6950.231km 6950.186km
偏心率 0.0002036 0.0003037
轨道倾角 70.001° 69.999°
近地点辐角 272.638° 272.822°
升交点赤经 114.777° 115.930°
平近点角 87.454° 126.352°
近地点 570.678km 569.938km
远地点 573.51km 574.16km
周期 96.108分钟 96.107分钟
每日圈数 14.983177 14.983323
详细信息
固有亮度:
5
最大亮度:
2.5
卫星平台:
Starlink v1.5
覆盖范围:
全球
运营商:
太空探索技术公司
运营商所在国:
美国
制造商(研发单位):
太空探索技术公司
制造商所在国:
美国
使用方式:
暂无
卫星简介
星链(Starlink)计划是由太空探索技术公司(SpaceX)提出的一个巨型低轨卫星互联网星座项目,计划在2019年至2024年间在太空搭建由约1.2万颗卫星组成的“星链”网络,其中1584颗将部署在地球上空550千米处的近地轨道,并从2020年开始工作。该卫星仍在工作。
2D轨道图
3D轨道图
轨道高度分析图
轨道倾角分析图
轨道综合分析图
查看轨道综合分析图
交会数据列表
事件ID 空间交会对象 最接近时刻(TCA) 交会距离 交会风险概率(CRP) 交会风险指数(CRI) 操作
CDM_260906-104104-435005-563222
2026-09-06T
10:41:02+0000
0.902 km
远距离
3.118387E-5 中风险 0.65
CDM_260905-062504-462105-563222
2026-09-05T
06:25:00+0000
2.293 km
极远距离
2.083014E-6 低风险 0.41
CDM_260906-232905-215305-563222
OBJECT A (52153)
2026-09-06T
23:29:56+0000
2.564 km
极远距离
1.696872E-6 低风险 0.4